Location: Zwardon
(49.5170°N, 18.9830°E)
Time: 17:26:42
(UTC+02:00)

X-37B - Pass Details

Date: 13 December 2022
Orbit: 277 x 277 km, 45.0° (Epoch: 01 November)

Event Time Altitude Azimuth Distance (km) Brightness Sun altitude
Rises 17:01:00 0° 249° (WSW) 1,911 6.3 -11.7°
Reaches altitude 10° 17:03:03 10° 236° (SW) 1,099 4.3 -12.0°
Maximum altitude 17:05:11 26° 175° (S) 585 1.6 -12.3°
Enters shadow 17:06:37 16° 125° (SE) 855 2.0 -12.5°
